Regional Weather Roundup
Issued by NWS Albany, NY

Home | Current Version | Previous Version | Graphics & Text | Print | Product List | Glossary On
Versions: 1 2 3 4 5 6 7 8 9 10 11 12 13 14 15 16 17 18 19 20 21 22 23 24 25 26 27 28 29 30 31 32 33 34 35 36 37 38 39 40 41 42 43 44 45 46 47 48 49 50
000
ASUS41 KALY 222110
RWRALY

NEW YORK STATE HOURLY WEATHER ROUNDUP
NATIONAL WEATHER SERVICE ALBANY NY
500 PM EDT MON SEP 22 2014

NOTE: "FAIR" INDICATES FEW OR NO CLOUDS BELOW 12,000 FEET WITH NO
SIGNIFICANT WEATHER AND/OR NO OBSTRUCTIONS TO VISIBILITY.

NYZ032-033-038>043-046>054-057>066-NYZ062>081-222200-
EAST


CITY           SKY/WX    TMP DP  RH WIND       PRES   REMARKS
ALBANY         PTSUNNY   56  39  53 W20G31    30.00R
GLENS FALLS    MOSUNNY   56  37  49 W12G23    29.97R
POUGHKEEPSIE   SUNNY     65  40  39 NW15G22   29.95R
NEWBURGH       MOSUNNY   63  45  51 NW17G31   29.97R
MONTGOMERY     SUNNY     61  39  44 NW14G23   29.99R
WHITE PLAINS   MOSUNNY   65  43  44 NW16      29.94R
ISLIP          MOSUNNY   69  46  43 NW20G26   29.91R
NEW YORK CITY  MOSUNNY   69  45  41 NW15G26   29.94R
CENTRAL PARK   SUNNY     67  43  41 W10G16    29.98R
$$

NYZ005>009-017-018-044>046-055-056-222200-
CENTRAL


CITY           SKY/WX    TMP DP  RH WIND       PRES   REMARKS
FULTON         CLOUDY    54  42  64 W10G21    30.06R
SYRACUSE       CLOUDY    54  41  61 W17G24    30.06S
ROME           CLOUDY    51  41  68 NW13G23   30.06R
ELMIRA         CLOUDY    56  41  57 NW13G18   30.08R
BINGHAMTON     CLOUDY    51  40  65 NW7       30.06R
MONTICELLO     PTSUNNY   55  39  54 NW15G23   30.03R
$$

NYZ026>034-041>043-222200-
NORTH


CITY           SKY/WX    TMP DP  RH WIND       PRES   REMARKS
WATERTOWN      CLOUDY    56  37  49 W16       30.02S
FORT DRUM      NOT AVBL
MASSENA        CLOUDY    51  39  63 W12       29.99R
SARANAC LAKE   CLOUDY    44  38  79 VRB7G18   29.95R
PLATTSBURGH    CLOUDY    53  38  56 VRB5      29.94R
$$

NYZ001>004-010>016-019>021-222200-
WEST


CITY           SKY/WX    TMP DP  RH WIND       PRES   REMARKS
NIAGARA FALLS  PTSUNNY   56  40  55 W18       30.11S
BUFFALO        PTSUNNY   54  38  54 W13       30.12R
DUNKIRK        CLOUDY    55  41  59 W12G22    30.14S
JAMESTOWN      CLOUDY    48  39  71 NW8       30.15S
WELLSVILLE     CLOUDY    49  39  68 NW14      30.12S
ROCHESTER      CLOUDY    54  40  59 W14G21    30.10R
PENN YAN       CLOUDY    53  40  61 W9G17     30.09R
$$

             KEY
       WCI = WIND CHILL INDEX
       VSB = VISIBILITY
       HX  = HEAT INDEX
$$


USA.gov is the U.S. government's official web portal to all federal, state and local government web resources and services.